sat.trackr.live / text

‹ back to catalog

QIANFAN-59

NORAD 62789 · 2025-016E

PAYLOAD ACTIVE UNKNOWN

§ Identity

Operator
Country
PRC
Launch date
2025-01-23
Launch site
TAISC
Launch vehicle
Mass (kg)
RCS (m²)

External: N2YO · Heavens-Above · Gunter

§ Orbital elements

Epoch: 2026-05-25T03:08:19.721184Z

Period
106.59 min
Inclination
88.9732°
Eccentricity
0.0012116
Mean motion
13.51006137 rev/d
Perigee alt
1,059.5 km
Apogee alt
1,077.6 km
Semi-major
7,446.7 km
B*
1.5886e-4
RAAN
86.1562°
Arg perigee
230.6503°
Mean anomaly
129.3575°
Rev number
6,930

§ Raw data

QIANFAN-591 62789U 25016E   26145.13078381  .00000115  00000+0  15886-3 0  99922 62789  88.9732  86.1562 0012116 230.6503 129.3575 13.51006137 69306

JSON: /api/v1/satellites/62789 · /tle

For live sub-satellite position, see the globe view (requires WebGL).

§ Visibility from observer

Set your observer location to see the next 7 days of passes ≥ 10°. The values pass through the URL so the page stays shareable.

No JS? Fill the form by hand. The geolocation button needs JavaScript.